Regional Weather Roundup
Issued by NWS

Home | Current Version | Previous Version | Text Only | Print | Product List | Glossary Off
Versions: 1 2 3 4 5 6 7 8 9 10 11 12 13 14 15 16 17 18 19 20 21 22 23 24 25 26 27 28 29 30 31 32 33 34 35 36 37 38 39 40 41 42 43 44 45 46 47 48 49 50

000
ASUS45 KABQ 301301
RWRNM
NEW MEXICO REGIONAL WEATHER ROUNDUP
NATIONAL WEATHER SERVICE ALBUQUERQUE NM
700 AM MDT SAT MAY 30 2015

NOTE: "FAIR" MEANS FEW OR NO CLOUDS BELOW 12,000 FEET AGL WITH NO
       SIGNIFICANT WEATHER OR OBSTRUCTIONS TO VISION.

      THIS PRODUCT IS RELEASED AS TWO VERSIONS.  ONE VERSION NEAR
      THE TOP OF THE HOUR CONTAINING PRELIMINARY DATA FROM ALBUQUERQUE
      AND OTHER STATIONS.  A FINAL VERSION WITH ADDITIONAL DATA IS
      ISSUED ABOUT 10 MINUTES AFTER THE HOUR.

NMZ501-503-504-510>518-301400-
NORTHWEST PLATEAU/NORTHCENTRAL MOUNTAINS

CITY           SKY/WX    TMP DP  RH WIND       PRES   REMARKS
FARMINGTON     SUNNY     49  34  56 E9        30.26R
SANTA FE       SUNNY     52  42  69 S8        30.33R
TAOS           SUNNY     43  30  61 N3        30.37R

$$
NMZ402-403-502-505>509-301400-
WESTCENTRAL MOUNTAINS/SOUTHWEST MOUNTAINS

CITY           SKY/WX    TMP DP  RH WIND       PRES   REMARKS
GALLUP         SUNNY     43  30  60 E3        30.30R
GRANTS         SUNNY     54  43  65 S12G17    30.33R
SILVER CITY      N/A     63  27  25 W6        30.19R

$$
NMZ407-409-411-412-301400-
SOUTHERN DESERTS

CITY           SKY/WX    TMP DP  RH WIND       PRES   REMARKS
LORDSBURG      FAIR      59  21  23 S6        30.12R
DEMING         CLEAR     69  43  38 NE24      30.11R
ALAMOGORDO     SUNNY     57  36  44 SE7       30.15R
T OR C         SUNNY     64  44  48 NE17G24   30.20R

$$
NMZ519>523-301400-
CENTRAL VALLEYS/CENTRAL HIGHLANDS

CITY           SKY/WX    TMP DP  RH WIND       PRES   REMARKS
ALBUQUERQUE    MOSUNNY   60  46  59 E16       30.28R
DOUBLE EAGLE   MOSUNNY   57  46  67 SE14      30.30R
MORIARTY ARPT  FAIR      48  43  82 CALM      30.35S
CLINES CORNERS MOSUNNY   50  42  74 E12       30.35R
BELEN          FAIR      56  45  66 W9        30.27R
SOCORRO        NOT AVBL

$$
NMZ524>526-539-540-301400-
SOUTHCENTRAL MOUNTAINS

CITY           SKY/WX    TMP DP  RH WIND       PRES   REMARKS
RUIDOSO        NOT AVBL

$$
NMZ527>531-301400-
NORTHEAST HIGHLANDS/NORTHEAST PLAINS

CITY           SKY/WX    TMP DP  RH WIND       PRES   REMARKS
LAS VEGAS      CLOUDY    47  43  86 NE3       30.37R
RATON          SUNNY     48  43  82 NE5       30.33S
CLAYTON        CLOUDY    51  48  89 NE12      30.31S

$$
NMZ532>537-301400-
EASTCENTRAL PLAINS

CITY           SKY/WX    TMP DP  RH WIND       PRES   REMARKS
TUCUMCARI      CLOUDY    56  52  86 E7        30.29R
CANNON AFB     CLOUDY    53  51  90 NE17      30.29R
CLOVIS AIRPORT CLOUDY    54  50  87 NE18      30.29R

$$
NMZ028-029-538-301400-
SOUTHEAST PLAINS

CITY           SKY/WX    TMP DP  RH WIND       PRES   REMARKS
ROSWELL        CLOUDY    60  54  80 N12       30.23R
ARTESIA        CLOUDY    59  59 100 NW9       30.23R
CARLSBAD       CLOUDY    62  56  80 W7        30.20R
HOBBS          LGT RAIN  59  55  88 E18G25    30.17R


$$



USA.gov is the U.S. government's official web portal to all federal, state and local government web resources and services.